sat.trackr.live / text

‹ back to catalog

STARLINK-35283

NORAD 66478 · 2025-262Y

PAYLOAD ACTIVE UNKNOWN

§ Identity

Operator
Country
US
Launch date
2025-11-15
Launch site
AFETR
Launch vehicle
Mass (kg)
RCS (m²)

Purposes: comms

External: N2YO · Heavens-Above · Gunter

§ Orbital elements

Epoch: 2026-05-24T14:30:13.670496Z

Period
94.27 min
Inclination
42.9992°
Eccentricity
0.0001653
Mean motion
15.27595787 rev/d
Perigee alt
481.9 km
Apogee alt
484.1 km
Semi-major
6,861.1 km
B*
9.0264e-4
RAAN
227.6936°
Arg perigee
268.6474°
Mean anomaly
91.4189°
Rev number
3,051

§ Raw data

STARLINK-352831 66478U 25262Y   26144.60432489  .00024672  00000+0  90264-3 0  99952 66478  42.9992 227.6936 0001653 268.6474  91.4189 15.27595787 30512

JSON: /api/v1/satellites/66478 · /tle

For live sub-satellite position, see the globe view (requires WebGL).

§ Visibility from observer

Set your observer location to see the next 7 days of passes ≥ 10°. The values pass through the URL so the page stays shareable.

No JS? Fill the form by hand. The geolocation button needs JavaScript.